Weather History for KVOK - November, 2013

Change the Weather History Date:

Friday, November 8, 2013

  Actual Average Record
Temperature  
Mean Temperature 30 °F -  
Max Temperature 44 °F 44 °F 73 °F (2006)
Min Temperature 16 °F 31 °F 16 °F (2013)
Degree Days  
Heating Degree Days 35    
Moisture  
Dew Point 24 °F    
Average Humidity 87    
Maximum Humidity 100    
Minimum Humidity 53    
Precipitation  
Precipitation 0.00 in - - ()
Sea Level Pressure  
Sea Level Pressure 30.12 in    
Wind  
Wind Speed 3 mph (SE)    
Max Wind Speed 15 mph    
Max Gust Speed 22 mph    
Visibility 7 miles    
Events Fog , Rain    
Averages and records for this station are not official NWS values.
T = Trace of Precipitation, MM = Missing Value Source: NWS Daily Summary

Daily Weather History Graph

Daily Weather History Graph

Search for Another Location

Airport or City:

Trip Planner

Search our weather history database for the weather conditions in past years. The results will help you decide how hot, cold, wet, or windy it might be!

Date:

Astronomy

Nov. 08, 2013 Rise Set
Actual Time 6:46 AM CST 4:42 PM CST
Civil Twilight 6:16 AM CST 5:12 PM CST
Nautical Twilight 5:41 AM CST 5:47 PM CST
Astronomical Twilight 5:08 AM CST 6:20 PM CST
Moon 11:42 AM CST (11/8) 10:03 PM CST (11/8)
Length of Visible Light 10h 56m
Length of Day
9h 55m
Waxing Crescent, 33% of the Moon is Illuminated
Nov 8
Waxing Crescent
Nov 9
First Quarter
Nov 17
Full
Nov 25
Last Quarter
Dec 2
New

Hourly Weather History & Observations

Time (CST) Temp. Windchill Dew Point Humidity Pressure Visibility Wind Dir Wind Speed Gust Speed Precip Events Conditions
12:03 AM 21.2 °F - 21.2 °F 100% 30.21 in 0.2 mi Calm Calm - N/A Fog Light Freezing Fog
12:08 AM 21.2 °F - 21.2 °F 100% 30.21 in 0.5 mi Calm Calm - N/A Fog Light Freezing Fog
12:23 AM 21.2 °F - 21.2 °F 100% 30.21 in 1.8 mi Calm Calm - N/A   Clear
12:28 AM 21.2 °F - 21.2 °F 100% 30.21 in 6.0 mi Calm Calm - N/A   Clear
12:33 AM 21.2 °F - 21.2 °F 100% 30.21 in 6.0 mi Calm Calm - N/A   Clear
12:38 AM 21.2 °F - 19.4 °F 93% 30.21 in 1.5 mi Calm Calm - N/A   Clear
12:43 AM 21.2 °F - 21.2 °F 100% 30.21 in 1.2 mi Calm Calm - N/A   Clear
12:48 AM 21.2 °F - 21.2 °F 100% 30.21 in 2.5 mi Calm Calm - N/A   Clear
12:53 AM 21.2 °F - 21.2 °F 100% 30.21 in 2.5 mi Calm Calm - N/A   Clear
12:58 AM 20.8 °F - 20.7 °F 99% 30.21 in 1.8 mi Calm Calm - N/A   Clear
1:03 AM 21.2 °F - 21.2 °F 100% 30.21 in 2.5 mi Calm Calm - N/A   Clear
1:08 AM 21.2 °F - 21.2 °F 100% 30.21 in 9.0 mi SSE 1.2 mph - N/A   Clear
1:28 AM 19.4 °F - 19.4 °F 100% 30.21 in 8.0 mi SSE 2.3 mph - N/A   Clear
1:38 AM 19.4 °F - 19.4 °F 100% 30.21 in 4.0 mi SE 2.3 mph - N/A   Clear
1:53 AM 19.4 °F - 19.4 °F 100% 30.21 in 4.0 mi SE 2.3 mph - N/A   Clear
1:58 AM 19.6 °F - 19.2 °F 99% 30.21 in 4.0 mi ESE 2.3 mph - N/A   Clear
2:13 AM 19.4 °F - 19.4 °F 100% 30.21 in 6.0 mi ESE 2.3 mph - N/A   Clear
2:33 AM 19.4 °F - 19.4 °F 100% 30.21 in 10.0 mi Calm Calm - N/A   Clear
2:38 AM 19.4 °F - 17.6 °F 93% 30.21 in 8.0 mi Calm Calm - N/A   Clear
2:58 AM 19.9 °F - 19.6 °F 99% 30.21 in 9.0 mi Calm Calm - N/A   Clear
3:03 AM 19.4 °F - 17.6 °F 93% 30.21 in 9.0 mi East 1.2 mph - N/A   Clear
3:13 AM 19.4 °F - 19.4 °F 100% 30.22 in 8.0 mi SSE 2.3 mph - N/A   Clear
3:18 AM 19.4 °F - 19.4 °F 100% 30.22 in 9.0 mi South 2.3 mph - N/A   Clear
3:33 AM 19.4 °F - 17.6 °F 93% 30.22 in 9.0 mi ESE 1.2 mph - N/A   Clear
3:53 AM 19.4 °F - 19.4 °F 100% 30.22 in 10.0 mi SSE 2.3 mph - N/A   Clear
3:58 AM 18.7 °F - 18.1 °F 98% 30.22 in 10.0 mi SE 1.2 mph - N/A   Clear
4:03 AM 17.6 °F - 17.6 °F 100% 30.22 in 9.0 mi SSE 2.3 mph - N/A   Clear
4:23 AM 19.4 °F - 19.4 °F 100% 30.22 in 6.0 mi SE 2.3 mph - N/A   Clear
4:33 AM 19.4 °F - 19.4 °F 100% 30.22 in 5.0 mi SE 2.3 mph - N/A   Clear
4:38 AM 17.6 °F - 17.6 °F 100% 30.22 in 5.0 mi SE 2.3 mph - N/A   Clear
4:58 AM 18.1 °F 12.9 °F 17.6 °F 98% 30.27 in 4.0 mi SE 3.5 mph - N/A   Clear
5:13 AM 17.6 °F 12.3 °F 17.6 °F 100% 30.22 in 3.0 mi ESE 3.5 mph - N/A   Clear
5:23 AM 17.6 °F 12.3 °F 17.6 °F 100% 30.22 in 3.0 mi ESE 3.5 mph - N/A   Clear
5:38 AM 17.6 °F 12.3 °F 15.8 °F 93% 30.21 in 4.0 mi ESE 3.5 mph - N/A   Clear
5:58 AM 16.3 °F 10.8 °F 15.8 °F 98% 30.27 in 5.0 mi SE 3.5 mph - N/A   Clear
6:33 AM 21.2 °F 16.4 °F 19.4 °F 93% 30.22 in 6.0 mi ESE 3.5 mph - N/A   Clear
6:58 AM 20.8 °F - 20.7 °F 99% 30.27 in 6.0 mi SE 2.3 mph - N/A   Clear
7:58 AM 26.6 °F 22.6 °F 26.6 °F 100% 30.28 in 7.0 mi Variable 3.5 mph - N/A   Scattered Clouds
8:58 AM 32.0 °F 26.4 °F 32.0 °F 100% 30.27 in 10.0 mi South 5.8 mph - N/A   Mostly Cloudy
9:58 AM 35.6 °F 29.2 °F 32.0 °F 87% 30.24 in 10.0 mi SSE 8.1 mph - N/A   Overcast
10:58 AM 37.4 °F 31.4 °F 30.2 °F 75% 30.22 in 10.0 mi SE 8.1 mph - N/A   Overcast
11:58 AM 39.2 °F 33.6 °F 32.0 °F 75% 30.19 in 10.0 mi SE 8.1 mph - N/A   Overcast
12:58 PM 41.0 °F 35.2 °F 32.0 °F 70% 30.13 in 10.0 mi SE 9.2 mph - N/A   Overcast
1:55 PM 41.0 °F 35.2 °F 32.0 °F 70% 30.06 in 10.0 mi SE 9.2 mph - N/A   Partly Cloudy
1:58 PM 41.0 °F 35.2 °F 30.2 °F 65% 30.10 in 10.0 mi SE 9.2 mph - N/A   Overcast
2:58 PM 42.8 °F 36.6 °F 32.0 °F 66% 30.05 in 10.0 mi ESE 11.5 mph - N/A   Overcast
3:58 PM 42.8 °F 37.5 °F 28.4 °F 57% 30.03 in 10.0 mi SE 9.2 mph - N/A   Overcast
4:58 PM 41.0 °F 33.9 °F 28.4 °F 61% 29.98 in 10.0 mi SE 12.7 mph - N/A   Overcast
5:58 PM 41.7 °F 34.8 °F 28.0 °F 58% 29.97 in 10.0 mi SE 12.7 mph 20.7 mph N/A   Mostly Cloudy
6:58 PM 42.8 °F 35.4 °F 28.6 °F 57% 29.95 in 10.0 mi SSE 15.0 mph 21.9 mph N/A   Partly Cloudy
7:58 PM 43.3 °F 36.1 °F 28.2 °F 55% 29.90 in 10.0 mi SSE 15.0 mph 21.9 mph N/A   Scattered Clouds
8:29 PM 44.6 °F 38.8 °F 28.4 °F 53% 29.86 in 10.0 mi SSE 11.5 mph 20.7 mph N/A Rain Light Rain
8:58 PM 42.1 °F 36.1 °F 32.2 °F 68% 29.87 in 10.0 mi SSE 10.4 mph 19.6 mph 0.00 in Rain Light Rain
9:08 PM 41.0 °F 35.8 °F 32.0 °F 70% 29.81 in 10.0 mi SSE 8.1 mph 17.3 mph N/A   Clear
9:47 PM 42.8 °F 36.2 °F 32.0 °F 66% 29.79 in 10.0 mi SSE 12.7 mph - N/A Rain Light Rain
9:58 PM 42.4 °F 36.5 °F 32.9 °F 69% 29.81 in 10.0 mi South 10.4 mph 20.7 mph 0.00 in Rain Light Rain
9:59 PM 42.8 °F 36.6 °F 32.0 °F 66% 29.78 in 10.0 mi South 11.5 mph 20.7 mph N/A   Partly Cloudy
10:21 PM 44.6 °F 39.7 °F 32.0 °F 61% 29.78 in 10.0 mi South 9.2 mph - N/A Rain Light Rain
10:58 PM 43.5 °F 37.1 °F 34.3 °F 70% 29.76 in 10.0 mi South 12.7 mph - 0.00 in Rain Light Rain
11:24 PM 42.8 °F 37.5 °F 37.4 °F 81% 29.71 in 10.0 mi South 9.2 mph - N/A   Mostly Cloudy
11:58 PM 42.4 °F 36.5 °F 38.1 °F 85% 29.74 in 10.0 mi South 10.4 mph - 0.00 in   Mostly Cloudy